#timestamp,LO_Frequency,Hit,StdDev 
1549825215.2,286047002.3,N
1549825235.1,286047002.2,N
1549825236.0,286047002.2,N
1549825255.8,286047004.4,Y
1549825275.7,286047000.8,P
1549825295.5,286047000.9,N
1549825315.3,286046998.2,N
1549825335.2,286047000.7,N
1549825355.9,286047000.1,N
1549825375.7,286047001.3,N
1549825395.6,286047003.7,N
1549825415.4,286047002.3,N
1549825435.3,286046999.9,N
1549825455.1,286046999.9,N
1549825475.8,286047002.8,N
1549825495.7,286047002.7,N
1549825515.5,286047003.9,N
1549825535.4,286046999.8,N
1549825555.2,286046998.5,N
1549825575.0,286046998.2,N
1549825575.9,286046998.2,N
1549825595.8,286047002.7,N
1549825615.6,286046998.7,N
1549825635.5,286047000.7,N
1549825655.3,286046996.9,N
1549825675.1,286046999.1,N
1549825695.9,286047001.2,N
1549825715.7,286047000.1,N
1549825735.5,286047002.3,N
1549825755.4,286046999.4,N
1549825775.2,286046999.6,N
1549825795.1,286046999.6,N
1549825796.0,286046999.6,N
1549825815.8,286046996.7,N
1549825835.6,286046999.0,N
1549825855.5,286047000.8,N
1549825875.3,286046998.1,N
1549825895.2,286047001.1,N
1549825915.9,286047002.7,N
1549825935.7,286047002.1,N
1549825955.6,286047001.3,N
1549825975.4,286047001.3,N
1549825995.2,286047004.0,N
1549826015.1,286047003.1,N
1549826016.0,286047003.1,N
1549826035.8,286047001.5,N
1549826055.7,286047004.2,N
1549826075.5,286047000.2,N
1549826095.3,286046999.1,N
1549826115.2,286046996.6,N
1549826135.0,286046998.7,N
1549826135.9,286046998.7,N
1549826155.8,286046998.5,N
1549826175.6,286047000.8,N
1549826195.4,286047004.0,N
1549826215.3,286047000.5,N
1549826235.1,286046998.3,N
1549826255.9,286046998.3,N
1549826275.7,286047000.8,N
1549826295.5,286046998.5,N
1549826315.4,286046998.1,N
1549826335.2,286046999.0,N
1549826355.1,286046998.9,N
1549826356.0,286046998.9,N
1549826375.8,286047001.2,N
1549826395.6,286046998.2,N
1549826415.5,286046998.4,N
1549826435.3,286046998.4,N
1549826455.1,286046998.2,N
1549826475.9,286046999.3,N
1549826495.7,286046996.6,N
1549826515.6,286046997.7,N
1549826535.4,286046996.6,N
1549826555.2,286046997.1,N
1549826575.1,286046997.8,N
1549826576.0,286046997.8,N
1549826595.8,286046997.8,N
1549826615.7,286046997.0,N
1549826635.5,286047000.4,N
1549826655.3,286047000.7,N
1549826675.2,286047000.9,N
1549826695.0,286047000.6,N
1549826695.9,286047000.6,N
1549826715.8,286047002.1,N
1549826735.6,286047001.4,N
1549826755.4,286047000.1,N
1549826775.3,286046998.9,N
1549826795.1,286046997.3,N
1549826815.9,286046997.9,N
1549826835.7,286046995.0,Y
1549826855.5,286046997.6,P
1549826875.4,286046994.9,P
1549826895.2,286046997.5,N
1549826915.0,286046997.9,N
1549826916.0,286046997.9,N
1549826935.8,286046997.9,N
1549826955.6,286046995.0,Y
1549826975.5,286047000.3,P
1549826995.3,286047001.1,N
1549827015.2,286047000.1,N
1549827035.0,286047000.0,N
1549827035.9,286047000.0,N
1549827055.8,286047002.8,N
1549827075.6,286047002.5,N
1549827095.4,286047004.3,N
1549827115.3,286047004.2,N
1549827135.1,286047002.2,N
1549827155.8,286047001.7,N
1549827175.7,286047002.9,N
1549827195.5,286047001.6,N
1549827215.4,286046999.8,N
1549827235.2,286047002.8,N
1549827255.0,286046999.9,N
1549827255.9,286046999.9,N
1549827275.8,286047002.2,N
1549827295.6,286047004.3,N
1549827315.4,286047003.8,N
1549827335.3,286047004.5,N
1549827355.1,286047003.6,N
1549827375.9,286047004.4,N
1549827395.7,286047003.0,N
1549827415.5,286047005.0,N
1549827435.4,286047007.3,Y
1549827455.2,286047002.2,P
1549827475.1,286046999.8,P
1549827476.0,286046999.8,N
1549827495.8,286046998.6,N
1549827515.6,286047002.4,N
1549827535.5,286047000.3,N
1549827555.3,286047000.9,N
1549827575.2,286047001.8,N
1549827595.9,286047004.1,Y
1549827615.7,286047001.4,P
1549827635.6,286047004.0,P
1549827655.4,286047001.4,N
1549827675.3,286047004.3,Y
1549827695.1,286046999.7,P
1549827715.8,286046999.4,N
1549827735.7,286046997.8,N
1549827755.5,286046995.3,Y
1549827775.4,286046997.3,P
1549827795.2,286046999.4,N
1549827815.0,286047000.6,N
1549827815.9,286047000.6,N
1549827835.8,286047002.7,N
1549827855.6,286046998.3,N
1549827875.4,286046999.1,N
1549827895.3,286047000.4,N
1549827915.1,286046998.7,N
1549827935.9,286047000.4,N
1549827955.7,286047001.1,N
1549827975.5,286047000.6,N
1549827995.4,286046998.2,N
1549828015.2,286047000.4,N
1549828035.0,286046999.3,N
1549828035.9,286046999.3,N
1549828055.8,286046998.7,N
1549828075.6,286046999.6,N
1549828095.5,286046997.8,N
1549828115.3,286046999.6,N
1549828135.1,286047001.2,N
1549828185.9,286046999.0,E
1549828195.8,286046999.2,N
1549828215.7,286046997.2,P
1549828235.5,286046997.0,P
1549828255.3,286046998.9,N
1549828275.2,286046998.9,N
1549828295.0,286046998.6,N
1549828295.9,286046998.6,N
1549828315.8,286047001.2,N
1549828335.6,286047000.9,N
1549828355.4,286047001.8,N
1549828375.3,286047002.4,N
1549828395.1,286047002.2,N
1549828415.8,286047002.2,N
1549828435.7,286047002.4,N
1549828455.5,286046999.8,N
1549828475.4,286047001.1,N
1549828495.2,286047000.8,N
1549828515.0,286047001.2,N
1549828515.9,286047001.2,N
1549828535.8,286047001.1,N
1549828555.6,286047000.7,N
1549828575.4,286046999.8,N
1549828595.3,286047002.2,N
1549828615.1,286047003.7,N
1549828635.9,286047005.8,Y
1549828655.7,286047005.9,P
1549828675.5,286047004.4,N
1549828695.4,286047002.3,N
1549828715.2,286047002.1,N
1549828735.0,286046998.2,N
1549828735.9,286046998.2,N
1549828755.8,286046999.2,N
1549828775.6,286046997.3,N
1549828795.5,286046996.9,N
